Wind_Speed
9 8 7 6 4 3 3 1 2 3 3 4 5 6 8 9 9 9 9 9 10 10 10 10 10 10 11 10 10 10 10 10 11 10 10 10 10 10 10 9 10 9 8 8
9 7 7 6 4 3 2 1 1 1 1 2 3 5 7 8 8 9 10 11 9 9 8 9 9 9 10 10 9 9 10 10 10 10 10 9 10 10 10 9 9 9 8 8
9 7 7 6 6 4 4 2 1 1 3 4 5 5 6 7 8 9 9 10 9 9 8 7 8 8 9 9 9 9 9 9 9 10 10 9 9 9 10 10 8 8 8 8
10 10 9 8 7 6 6 4 4 4 4 4 6 7 6 7 8 8 9 9 8 8 7 7 7 7 8 8 8 8 8 8 8 8 9 8 8 9 9 10 9 8 8 8
10 10 10 9 8 7 6 7 7 7 7 6 6 7 6 7 7 8 8 8 8 7 6 7 7 7 7 8 8 8 8 8 7 7 7 8 8 8 9 9 9 9 8 8
12 11 11 10 10 9 8 9 9 8 8 7 6 7 7 7 8 8 7 7 8 7 7 7 7 7 7 7 8 8 8 7 7 7 6 7 7 8 8 9 9 9 9 9
12 11 11 10 10 10 9 10 10 10 10 8 7 7 6 6 6 8 8 8 9 8 8 7 6 7 7 7 8 8 7 7 7 7 7 7 7 8 9 9 10 10 10 9
14 12 12 11 10 9 9 10 11 12 12 11 10 8 7 5 6 7 8 9 9 9 9 7 7 7 7 7 7 7 8 8 7 7 7 7 7 8 9 9 10 10 10 11
14 12 12 12 10 10 10 11 11 12 12 12 11 10 8 6 6 6 7 8 9 9 8 7 7 7 8 8 8 8 9 8 8 7 7 7 7 8 9 9 10 11 10 11
14 13 13 13 13 12 12 12 12 12 12 12 10 9 9 8 7 7 7 7 8 9 9 8 7 7 9 9 9 9 10 9 9 8 8 8 8 9 10 11 11 11 11 12
15 14 14 15 15 13 13 14 13 13 13 13 12 10 9 9 9 8 8 8 8 10 11 10 9 9 10 11 10 10 10 10 10 10 10 10 10 11 11 12 12 12 13 13
17 18 17 17 16 15 14 14 14 14 15 13 13 11 9 10 10 10 10 11 10 10 11 12 12 12 12 11 12 12 12 12 12 12 12 12 12 12 12 12 13 14 14 14
19 19 19 19 18 17 16 15 15 15 15 15 14 12 10 11 12 12 12 13 13 12 13 15 14 14 14 13 13 13 14 14 15 14 14 14 14 14 14 14 15 15 16 16
21 21 21 21 20 19 18 16 15 15 16 16 15 13 12 12 13 14 15 15 15 16 16 16 16 16 14 15 15 15 16 17 18 17 16 17 16 16 16 17 17 17 18 18
22 22 21 21 20 21 20 19 17 17 17 17 16 15 14 15 16 16 16 17 17 17 17 17 17 17 16 17 17 17 18 18 19 19 19 19 19 19 19 19 19 19 20 20
22 22 22 21 21 22 22 20 18 18 17 17 17 17 17 18 19 18 19 18 18 18 18 19 18 19 19 19 19 19 20 20 20 20 20 20 21 22 21 21 21 21 21 21
23 23 23 23 22 22 23 21 19 18 17 18 18 18 19 20 20 20 20 19 19 19 20 21 21 21 21 21 21 21 21 22 22 21 22 22 22 23 23 23 23 23 23 22
26 25 25 24 23 24 22 21 21 20 19 19 19 19 20 21 22 22 21 20 21 21 22 23 23 23 24 24 24 24 23 24 24 24 24 24 25 25 24 24 25 25 25 25
27 27 27 26 25 24 23 22 22 23 22 21 21 20 20 21 22 21 20 21 23 23 23 24 24 25 26 26 26 26 26 26 26 26 26 26 26 26 26 26 26 26 26 27
26 27 27 27 27 26 23 23 24 24 24 23 23 22 23 22 23 23 23 24 25 26 26 27 27 27 27 28 28 28 28 28 27 27 27 27 28 27 27 27 27 27 28 27
26 27 27 28 28 27 25 24 24 26 26 25 24 23 24 25 25 26 26 27 27 27 28 29 29 30 29 29 29 29 29 28 28 28 28 28 28 28 28 28 28 29 29 29
27 27 28 29 29 28 27 26 27 26 26 27 26 26 26 27 27 27 28 28 29 29 30 30 31 31 31 31 31 30 29 29 29 29 29 29 29 29 30 30 30 31 31 31
27 28 28 29 29 28 28 28 28 28 28 27 28 28 28 28 29 28 29 29 30 30 31 31 32 32 32 32 32 32 31 31 30 30 30 29 29 30 31 31 31 32 32 33
28 28 28 29 29 29 28 29 29 29 28 27 28 28 28 28 29 29 29 30 30 30 30 31 32 32 32 32 32 33 33 32 32 31 31 31 30 30 31 31 31 31 32 32
27 28 28 29 29 29 29 30 30 30 29 28 28 28 28 29 29 29 30 31 32 32 32 32 32 32 31 31 32 33 33 32 32 32 31 31 31 31 31 31 32 32 32 32
28 28 29 28 28 29 30 31 31 30 29 29 30 29 30 31 31 31 31 31 32 32 32 31 31 30 31 31 31 32 32 31 31 32 32 32 32 31 31 31 31 31 31 32
Wind_Direction
175 167 157 149 131 114 93 78 16 21 36 28 20 17 12 16 19 25 29 30 32 34 37 39 40 40 39 39 40 39 39 39 39 42 43 42 39 38 37 37 37 36 37 34
182 172 169 174 170 157 176 207 334 327 325 349 357 353 356 3 8 13 18 17 21 28 28 33 35 35 34 34 32 31 32 33 33 34 35 37 37 36 35 32 30 31 31 28
198 191 191 192 188 185 199 214 268 298 287 291 299 326 336 347 357 5 6 8 11 15 20 26 30 31 29 28 27 26 27 29 30 29 29 31 31 28 29 27 22 19 19 19
204 204 206 206 205 206 215 222 238 253 257 267 286 308 319 331 343 1 4 6 10 10 14 16 20 23 20 21 20 20 22 22 22 22 25 24 24 24 22 18 13 9 8 8
213 216 216 220 215 215 222 232 240 251 255 262 273 288 304 318 334 346 0 2 3 6 8 4 6 12 11 11 11 15 17 18 18 18 21 19 16 14 13 12 9 7 8 5
219 218 220 224 221 214 223 233 236 244 253 255 266 279 295 308 332 342 352 351 348 356 359 354 355 1 1 359 357 2 6 5 4 9 13 12 9 8 6 6 2 2 2 2
221 219 223 226 224 216 225 232 236 240 246 251 260 270 280 285 311 331 338 339 345 347 348 344 348 351 347 348 350 353 357 355 352 358 360 358 357 356 358 359 356 353 354 353
221 216 219 225 229 229 238 240 244 248 252 252 253 260 268 274 292 311 326 331 340 346 346 342 342 343 339 343 343 344 347 346 344 344 346 343 342 344 344 342 344 343 339 338
224 220 223 225 230 236 244 247 250 255 261 258 258 260 262 270 282 291 307 321 333 341 341 334 334 336 337 340 338 335 336 333 328 325 327 328 331 328 326 327 330 331 328 328
229 225 223 225 231 238 243 245 250 257 262 263 262 257 260 266 273 280 285 305 321 330 331 324 320 326 331 332 334 333 332 326 320 317 316 317 317 316 315 315 318 319 322 324
234 233 230 231 234 241 244 246 250 252 259 265 268 264 258 270 279 283 287 297 311 314 322 323 316 317 322 324 326 327 326 322 317 311 309 312 311 310 309 311 312 315 317 317
240 243 239 234 234 238 240 245 249 253 257 263 268 269 271 273 278 281 285 288 296 304 307 312 311 309 312 315 316 314 314 316 316 310 310 312 310 309 305 304 306 309 310 313
241 242 238 234 234 237 239 238 245 253 257 262 264 267 270 269 270 274 282 291 295 297 301 308 309 307 307 310 309 307 308 309 311 308 305 303 301 302 301 297 299 301 302 304
239 240 240 241 239 240 241 240 243 248 256 260 264 264 266 269 272 278 281 285 293 295 298 302 304 304 302 304 304 305 306 306 305 305 303 299 296 294 295 295 295 295 297 300
238 239 240 241 240 238 239 241 243 248 252 257 260 261 263 267 269 275 279 283 288 290 293 297 299 301 297 296 299 301 303 302 302 301 299 296 292 291 290 289 291 293 294 295
238 239 240 241 240 241 243 243 243 246 250 253 257 259 264 268 271 272 275 279 284 288 290 292 293 297 295 296 297 298 299 299 299 298 296 294 293 293 291 289 290 292 294 293
237 238 239 240 239 243 246 246 246 247 247 253 256 260 262 265 268 272 275 277 281 285 288 289 291 293 294 295 297 297 298 298 297 295 294 293 291 290 290 289 289 289 290 294
238 241 242 241 243 245 246 245 247 249 251 254 258 261 263 264 267 271 274 274 279 284 287 288 289 290 292 293 295 297 296 296 295 294 293 291 290 289 287 287 288 287 289 291
237 241 243 245 247 248 247 249 251 251 255 258 262 263 264 264 267 271 273 275 278 282 284 285 288 289 291 292 292 293 293 294 293 292 292 291 289 287 286 286 286 286 288 290
237 241 243 246 249 250 250 251 253 254 256 259 262 265 265 267 270 271 272 274 278 281 284 287 290 290 291 292 292 292 293 293 292 291 291 291 290 287 285 284 284 284 285 287
238 241 243 247 250 252 252 252 254 255 257 260 262 265 268 269 270 270 271 273 277 280 283 286 288 289 290 291 292 293 292 292 291 290 290 290 288 287 285 283 283 283 284 285
242 243 246 249 251 253 254 255 256 258 259 260 264 268 270 271 272 272 272 273 275 279 281 283 286 287 288 289 290 290 290 290 290 290 291 289 287 285 284 283 283 283 283 284
242 244 248 250 252 254 256 257 259 260 262 263 266 270 271 271 271 272 273 276 278 280 281 283 285 286 285 285 286 288 288 288 289 290 289 288 287 285 284 284 283 284 283 282
243 246 248 249 251 253 255 257 259 261 262 265 268 269 270 270 270 271 272 275 278 281 283 284 285 285 285 285 286 288 288 288 288 289 289 286 286 286 285 284 283 284 284 283
245 249 251 251 253 254 254 257 259 262 262 265 266 267 268 268 269 270 273 276 279 281 283 284 285 286 287 287 287 288 288 288 288 288 289 287 285 286 287 286 285 284 284 284
246 250 252 254 255 256 256 257 260 261 263 264 266 266 268 269 270 272 274 276 278 281 283 285 285 285 286 287 288 288 288 288 287 287 288 287 287 286 286 286 285 285 285 285
Height
5923 5925 5925 5925 5925 5926 5926 5926 5926 5926 5926 5926 5926 5926 5926 5925 5924 5923 5922 5921 5919 5917 5916 5914 5913 5912 5910 5909 5907 5906 5904 5903 5902 5901 5900 5898 5897 5896 5894 5893 5892 5891 5890 5889
5923 5923 5924 5924 5924 5924 5925 5926 5926 5926 5926 5926 5926 5926 5925 5925 5924 5923 5922 5921 5919 5918 5916 5915 5913 5912 5911 5909 5908 5906 5905 5904 5903 5902 5900 5899 5898 5897 5895 5894 5893 5892 5890 5889
5921 5922 5923 5923 5923 5924 5924 5925 5926 5925 5925 5925 5925 5925 5925 5925 5924 5923 5922 5921 5920 5918 5916 5915 5914 5912 5911 5910 5908 5907 5905 5904 5903 5902 5901 5900 5899 5897 5896 5895 5893 5892 5890 5889
5919 5920 5921 5921 5922 5923 5923 5925 5925 5925 5925 5925 5925 5924 5924 5923 5923 5922 5921 5920 5919 5918 5916 5915 5914 5912 5911 5910 5908 5907 5906 5905 5903 5902 5901 5900 5899 5898 5897 5895 5894 5892 5891 5889
5917 5918 5919 5919 5921 5921 5922 5923 5923 5923 5923 5923 5923 5923 5924 5922 5922 5921 5920 5919 5918 5917 5916 5915 5913 5912 5911 5910 5908 5907 5906 5904 5903 5902 5901 5900 5899 5898 5897 5895 5894 5892 5891 5889
5914 5915 5916 5917 5918 5920 5920 5921 5921 5921 5921 5922 5922 5922 5922 5921 5920 5919 5918 5918 5917 5916 5915 5914 5913 5912 5911 5910 5909 5907 5906 5904 5903 5902 5901 5900 5899 5898 5897 5895 5894 5892 5890 5889
5911 5912 5913 5915 5916 5918 5918 5919 5920 5920 5919 5919 5920 5919 5921 5919 5918 5918 5917 5917 5916 5915 5914 5913 5912 5911 5910 5909 5908 5907 5905 5904 5903 5902 5901 5900 5899 5897 5896 5894 5893 5891 5890 5888
5908 5910 5911 5912 5914 5915 5916 5917 5918 5918 5917 5917 5917 5917 5918 5917 5916 5916 5916 5915 5915 5914 5913 5912 5911 5910 5910 5908 5907 5906 5905 5903 5903 5902 5901 5899 5898 5896 5895 5893 5892 5890 5888 5886
5905 5908 5909 5909 5911 5912 5913 5914 5915 5915 5914 5914 5914 5915 5915 5914 5914 5914 5914 5913 5913 5912 5911 5910 5910 5909 5908 5907 5906 5905 5903 5902 5901 5900 5899 5898 5896 5895 5893 5892 5890 5889 5887 5885
5902 5905 5906 5907 5908 5909 5910 5911 5912 5912 5912 5911 5912 5912 5913 5912 5912 5911 5911 5911 5911 5910 5910 5909 5908 5907 5907 5906 5905 5904 5902 5901 5899 5898 5897 5895 5894 5893 5891 5890 5888 5887 5885 5883
5899 5901 5903 5904 5905 5906 5907 5908 5908 5908 5909 5909 5908 5911 5910 5909 5909 5909 5909 5909 5909 5908 5908 5907 5906 5905 5905 5904 5903 5902 5900 5899 5897 5896 5894 5893 5891 5890 5889 5887 5885 5884 5882 5880
5895 5897 5899 5900 5902 5903 5903 5904 5905 5906 5906 5906 5906 5909 5907 5907 5906 5906 5906 5906 5906 5906 5905 5905 5904 5903 5902 5901 5900 5899 5897 5896 5894 5893 5891 5889 5888 5887 5885 5884 5882 5881 5879 5877
5890 5892 5894 5896 5900 5900 5900 5900 5901 5902 5903 5902 5903 5906 5904 5904 5903 5903 5903 5903 5903 5902 5902 5901 5901 5900 5899 5898 5897 5896 5894 5893 5891 5889 5887 5885 5884 5883 5881 5880 5878 5877 5875 5873
5886 5888 5891 5893 5894 5895 5896 5897 5898 5899 5899 5899 5900 5900 5901 5901 5900 5901 5900 5900 5900 5899 5898 5898 5897 5896 5895 5894 5893 5892 5890 5888 5887 5885 5882 5880 5879 5878 5877 5876 5874 5872 5870 5868
5882 5883 5885 5887 5889 5891 5892 5893 5894 5895 5895 5895 5896 5897 5897 5897 5898 5898 5897 5897 5896 5896 5895 5894 5893 5892 5891 5890 5889 5887 5886 5884 5882 5880 5879 5877 5875 5874 5872 5871 5869 5867 5865 5863
5877 5879 5881 5883 5885 5886 5887 5888 5889 5890 5890 5891 5892 5893 5893 5893 5894 5894 5893 5893 5892 5891 5891 5890 5889 5888 5887 5886 5884 5882 5881 5879 5877 5875 5873 5872 5870 5868 5866 5865 5863 5861 5859 5858
5872 5874 5876 5878 5880 5881 5882 5884 5885 5885 5886 5887 5887 5889 5889 5889 5889 5889 5889 5888 5887 5887 5886 5885 5884 5884 5882 5881 5879 5877 5875 5873 5871 5869 5868 5866 5864 5862 5860 5858 5857 5855 5853 5851
5867 5869 5871 5873 5875 5876 5880 5879 5880 5880 5881 5882 5882 5883 5883 5884 5884 5883 5883 5883 5882 5881 5880 5879 5878 5878 5876 5875 5873 5871 5869 5867 5865 5863 5861 5859 5858 5856 5854 5852 5850 5849 5847 5845
5862 5863 5865 5867 5868 5870 5873 5874 5874 5875 5876 5877 5877 5877 5877 5878 5877 5877 5877 5876 5876 5875 5874 5873 5872 5871 5870 5868 5867 5865 5862 5860 5858 5857 5855 5853 5851 5848 5846 5845 5843 5841 5840 5838
5856 5857 5859 5861 5862 5864 5868 5868 5869 5871 5870 5871 5871 5871 5871 5871 5872 5872 5871 5870 5870 5869 5868 5866 5865 5864 5862 5861 5859 5857 5855 5853 5851 5849 5847 5845 5843 5841 5839 5837 5835 5834 5832 5830
5849 5851 5852 5854 5855 5857 5860 5862 5863 5864 5865 5865 5865 5865 5865 5865 5865 5865 5865 5864 5863 5861 5860 5859 5858 5856 5855 5853 5852 5850 5848 5846 5844 5841 5839 5837 5835 5833 5831 5829 5827 5826 5823 5821
5842 5844 5846 5847 5849 5852 5853 5854 5855 5856 5857 5858 5858 5858 5859 5858 5857 5857 5856 5855 5855 5854 5853 5851 5850 5848 5847 5845 5843 5841 5840 5837 5835 5833 5831 5829 5827 5824 5822 5821 5819 5817 5815 5812
5835 5838 5839 5841 5843 5844 5845 5846 5847 5848 5849 5850 5851 5851 5851 5850 5849 5848 5848 5847 5846 5845 5844 5843 5841 5840 5838 5836 5834 5832 5830 5828 5826 5824 5822 5820 5818 5815 5813 5811 5809 5807 5805 5803
5829 5830 5832 5833 5834 5836 5837 5838 5839 5840 5842 5842 5843 5843 5843 5842 5841 5840 5840 5839 5838 5837 5836 5835 5833 5830 5828 5826 5824 5822 5820 5818 5817 5815 5813 5811 5809 5807 5804 5802 5800 5797 5795 5793
5822 5823 5824 5826 5827 5828 5830 5831 5832 5833 5834 5834 5835 5834 5834 5834 5833 5832 5832 5831 5830 5829 5827 5826 5824 5821 5819 5817 5815 5813 5811 5809 5807 5806 5804 5802 5799 5797 5795 5793 5791 5788 5786 5784
5815 5817 5818 5819 5820 5821 5823 5823 5824 5825 5826 5826 5826 5826 5825 5825 5825 5824 5823 5822 5821 5820 5819 5817 5815 5813 5811 5809 5807 5804 5802 5800 5798 5796 5794 5792 5790 5788 5786 5783 5781 5779 5777 5775